Regional Weather Roundup
Issued by NWS

Home | Current Version | Previous Version | Graphics & Text | Print | Product List | Glossary On
Versions: 1 2 3 4 5 6 7 8 9 10 11 12 13 14 15 16 17 18 19 20 21 22 23 24 25 26 27 28 29 30 31 32 33 34 35 36 37 38 39 40 41 42 43 44 45 46 47 48 49 50
000
ASUS43 KIND 281159
RWRIN

WEATHER ROUNDUP FOR INDIANA
NATIONAL WEATHER SERVICE INDIANAPOLIS IN
700 AM EST WED JAN 28 2015

NOTE: "FAIR" INDICATES FEW OR NO CLOUDS BELOW 12,000 FEET WITH NO
SIGNIFICANT WEATHER AND/OR OBSTRUCTIONS TO VISIBILITY.

* - STATION DOES NOT REPORT WEATHER SUCH AS PRECIPITATION OR FOG.

+ - STATION NOT QUALITY CONTROLLED BY THE NATIONAL WEATHER SERVICE.
    USE DATA WITH CAUTION...ESPECIALLY DEWPOINT AND RELATIVE
    HUMIDITY OBSERVATIONS.

INZ001>003-010>013-019-020-281300-
NORTHWEST INDIANA

CITY           SKY/WX    TMP DP  RH WIND       PRES   REMARKS
GARY /AIRPORT/ PTCLDY    21  12  68 SE8       30.29F WCI  12
VALPARAISO     NOT AVBL

$$

LMZ046-743>745-281300-
SOUTHERN LAKE MICHIGAN

STATION/POSITION TIME  TEMP WIND        PRES
                       AIR  DIR/SP/G
                 (UTC) (F)  (DEG/KT/KT) (MB)
MICHIGAN CITY    1100   21  120/  7/  8   N/A

$$

INZ004-005-014>016-021>024-281300-
NORTH CENTRAL INDIANA

CITY           SKY/WX    TMP DP  RH WIND       PRES   REMARKS
ELKHART        PTCLDY    10   7  85 CALM      30.31
GOSHEN         PTCLDY    11   6  81 SE3       30.31R
6HR MIN TEMP:  10; 6HR MAX TEMP:  15;

SOUTH BEND     FAIR      16  11  80 SE3       30.30S
6HR MIN TEMP:  12; 6HR MAX TEMP:  16;


$$

INZ006>009-017-018-025>027-281300-
NORTHEAST INDIANA

CITY           SKY/WX    TMP DP  RH WIND       PRES   REMARKS
ANGOLA *+      CLEAR      5   1  85 CALM      30.30R
FORT WAYNE     PTCLDY     7   2  80 CALM      30.33R
6HR MIN TEMP:   6; 6HR MAX TEMP:  11;


$$

INZ028-029-035-036-043>045-051>053-281300-
WEST CENTRAL INDIANA

CITY           SKY/WX    TMP DP  RH WIND       PRES   REMARKS
GREENCASTLE +  PTCLDY    16  10  79 CALM      30.30S
LAFAYETTE      PTCLDY    16  13  88 E6        30.31R WCI   7
6HR MIN TEMP:  14; 6HR MAX TEMP:  18;

TERRE HAUTE    CLEAR     20  14  77 SE6       30.31R WCI  12
6HR MIN TEMP:  17; 6HR MAX TEMP:  21;


$$

INZ030>032-037>040-046>048-054>057-064-065-281300-
CENTRAL INDIANA

CITY           SKY/WX    TMP DP  RH WIND       PRES   REMARKS
INDIANAPOLIS   CLEAR     16  13  88 SE5       30.31R WCI   9
6HR MIN TEMP:  15; 6HR MAX TEMP:  18;

-EAGLE CREEK   CLEAR     16  13  88 CALM      30.30S
6HR MIN TEMP:  15; 6HR MAX TEMP:  18;

KOKOMO *+      PTCLDY    10   5  79 SE3       30.31R
MT COMFORT *+  CLEAR     16  12  86 CALM      30.32R
SHELBYVILLE    CLEAR     16  12  84 E5        30.32R FOG     WCI   9
6HR MIN TEMP:  16; 6HR MAX TEMP:  20;


$$

INZ033-034-041-042-049-050-058-059-281300-
EAST CENTRAL INDIANA

CITY           SKY/WX    TMP DP  RH WIND       PRES   REMARKS
MUNCIE         PTCLDY     8   5  87 CALM      30.32R FOG
6HR MIN TEMP:   8; 6HR MAX TEMP:  12;


$$

INZ060-061-067>069-081>083-085>088-281300-
SOUTHWEST INDIANA

CITY           SKY/WX    TMP DP  RH WIND       PRES   REMARKS
EVANSVILLE     CLEAR     30  23  75 E9        30.31R WCI  22
6HR MIN TEMP:  28; 6HR MAX TEMP:  34;

HUNTINGBURG *+ CLEAR     23  16  74 SE7       30.33R WCI  15
6HR MIN TEMP:  23; 6HR MAX TEMP:  30;


$$

INZ062-063-066-070>080-084-089>092-281300-
SOUTH CENTRAL AND SOUTHEAST INDIANA

CITY           SKY/WX    TMP DP  RH WIND       PRES   REMARKS
BLOOMINGTON    PTCLDY    16  13  88 CALM      30.31R
6HR MIN TEMP:  15; 6HR MAX TEMP:  18;

SEYMOUR +      PTCLDY    18  16  93 CALM      30.35  FOG

$$



USA.gov is the U.S. government's official web portal to all federal, state and local government web resources and services.